owner,sensor,date,latitude,longitude,vertical_datum,sea_water_practical_salinity,qcFlag 
DISL,ioos:station:DISL:CATA:1,2013-05-01T00:00:00Z,30.3085,-88.1395,2.412,2.97,1111122 
DISL,ioos:station:DISL:CATA:1,2013-05-01T00:30:00Z,30.3085,-88.1395,2.443,2.98,1111122 
DISL,ioos:station:DISL:CATA:1,2013-05-01T01:00:00Z,30.3085,-88.1395,2.41,2.98,1111122 
DISL,ioos:station:DISL:CATA:1,2013-05-01T01:30:00Z,30.3085,-88.1395,2.36,2.99,1111122 
DISL,ioos:station:DISL:CATA:1,2013-05-01T02:00:00Z,30.3085,-88.1395,2.292,3.07,1111122 
DISL,ioos:station:DISL:CATA:1,2013-05-01T02:30:00Z,30.3085,-88.1395,2.201,3.38,1111122 
DISL,ioos:station:DISL:CATA:1,2013-05-01T03:00:00Z,30.3085,-88.1395,2.141,3.33,1111122 
DISL,ioos:station:DISL:CATA:1,2013-05-01T03:30:00Z,30.3085,-88.1395,2.117,3.36,1111122 
DISL,ioos:station:DISL:CATA:1,2013-05-01T04:00:00Z,30.3085,-88.1395,2.106,3.55,1111122 
DISL,ioos:station:DISL:CATA:1,2013-05-01T04:30:00Z,30.3085,-88.1395,2.104,3.68,1111122 
DISL,ioos:station:DISL:CATA:1,2013-05-01T05:00:00Z,30.3085,-88.1395,2.11,4.6,1111122 
DISL,ioos:station:DISL:CATA:1,2013-05-01T05:30:00Z,30.3085,-88.1395,2.122,4.54,1111122 
DISL,ioos:station:DISL:CATA:1,2013-05-01T06:00:00Z,30.3085,-88.1395,2.121,4.5,1111122 
DISL,ioos:station:DISL:CATA:1,2013-05-01T06:30:00Z,30.3085,-88.1395,2.114,4.45,1111122 
DISL,ioos:station:DISL:CATA:1,2013-05-01T07:00:00Z,30.3085,-88.1395,2.108,4.72,1111122 
DISL,ioos:station:DISL:CATA:1,2013-05-01T07:30:00Z,30.3085,-88.1395,2.101,6.2,1111122 
DISL,ioos:station:DISL:CATA:1,2013-05-01T08:00:00Z,30.3085,-88.1395,2.112,7.15,1111122 
DISL,ioos:station:DISL:CATA:1,2013-05-01T08:30:00Z,30.3085,-88.1395,2.123,9.15,1111122 
DISL,ioos:station:DISL:CATA:1,2013-05-01T09:00:00Z,30.3085,-88.1395,2.133,10.49,1111122 
DISL,ioos:station:DISL:CATA:1,2013-05-01T09:30:00Z,30.3085,-88.1395,2.131,10.13,1111122 
DISL,ioos:station:DISL:CATA:1,2013-05-01T10:00:00Z,30.3085,-88.1395,2.138,9.51,1111122 
DISL,ioos:station:DISL:CATA:1,2013-05-01T10:30:00Z,30.3085,-88.1395,2.148,9.64,1111122 
DISL,ioos:station:DISL:CATA:1,2013-05-01T11:00:00Z,30.3085,-88.1395,2.185,10.63,1111122 
DISL,ioos:station:DISL:CATA:1,2013-05-01T11:30:00Z,30.3085,-88.1395,2.227,11.65,1111122 
DISL,ioos:station:DISL:CATA:1,2013-05-01T12:00:00Z,30.3085,-88.1395,2.258,11.82,1111122 
DISL,ioos:station:DISL:CATA:1,2013-05-01T12:30:00Z,30.3085,-88.1395,2.285,12.14,1111122 
DISL,ioos:station:DISL:CATA:1,2013-05-01T13:00:00Z,30.3085,-88.1395,2.292,12.68,1111122 
DISL,ioos:station:DISL:CATA:1,2013-05-01T13:30:00Z,30.3085,-88.1395,2.333,12.92,1111122 
DISL,ioos:station:DISL:CATA:1,2013-05-01T14:00:00Z,30.3085,-88.1395,2.355,13.17,1111122 
DISL,ioos:station:DISL:CATA:1,2013-05-01T14:30:00Z,30.3085,-88.1395,2.379,12.89,1111122 
DISL,ioos:station:DISL:CATA:1,2013-05-01T15:00:00Z,30.3085,-88.1395,2.417,12.67,1111122 
DISL,ioos:station:DISL:CATA:1,2013-05-01T15:30:00Z,30.3085,-88.1395,2.444,12.71,1111122 
DISL,ioos:station:DISL:CATA:1,2013-05-01T16:00:00Z,30.3085,-88.1395,2.448,12.49,1111122 
DISL,ioos:station:DISL:CATA:1,2013-05-01T16:30:00Z,30.3085,-88.1395,2.463,11.83,1111122 
DISL,ioos:station:DISL:CATA:1,2013-05-01T17:00:00Z,30.3085,-88.1395,2.468,12.25,1111122 
DISL,ioos:station:DISL:CATA:1,2013-05-01T17:30:00Z,30.3085,-88.1395,2.483,12.94,1111122 
DISL,ioos:station:DISL:CATA:1,2013-05-01T18:00:00Z,30.3085,-88.1395,2.52,13.09,1111122 
DISL,ioos:station:DISL:CATA:1,2013-05-01T18:30:00Z,30.3085,-88.1395,2.533,12.93,1111122 
DISL,ioos:station:DISL:CATA:1,2013-05-01T19:00:00Z,30.3085,-88.1395,2.548,12.8,1111122 
DISL,ioos:station:DISL:CATA:1,2013-05-01T19:30:00Z,30.3085,-88.1395,2.558,12.74,1111122 
DISL,ioos:station:DISL:CATA:1,2013-05-01T20:00:00Z,30.3085,-88.1395,2.563,13.02,1111122 
DISL,ioos:station:DISL:CATA:1,2013-05-01T20:30:00Z,30.3085,-88.1395,2.532,13.08,1111122 
DISL,ioos:station:DISL:CATA:1,2013-05-01T21:00:00Z,30.3085,-88.1395,2.561,12.86,1111122 
DISL,ioos:station:DISL:CATA:1,2013-05-01T21:30:00Z,30.3085,-88.1395,2.528,12.82,1111122 
DISL,ioos:station:DISL:CATA:1,2013-05-01T22:00:00Z,30.3085,-88.1395,2.626,12.35,1111122 
DISL,ioos:station:DISL:CATA:1,2013-05-01T22:30:00Z,30.3085,-88.1395,2.499,12.68,1111122 
DISL,ioos:station:DISL:CATA:1,2013-05-01T23:00:00Z,30.3085,-88.1395,2.493,11.87,1111122 
DISL,ioos:station:DISL:CATA:1,2013-05-01T23:30:00Z,30.3085,-88.1395,2.52,11.6,1111122 
DISL,ioos:station:DISL:CATA:1,2013-05-02T00:00:00Z,30.3085,-88.1395,2.52,11.69,1111122 
DISL,ioos:station:DISL:CATA:1,2013-05-02T00:30:00Z,30.3085,-88.1395,2.366,10.98,1111122 
DISL,ioos:station:DISL:CATA:1,2013-05-02T01:00:00Z,30.3085,-88.1395,2.448,10.54,1111122 
DISL,ioos:station:DISL:CATA:1,2013-05-02T01:30:00Z,30.3085,-88.1395,2.323,10.77,1111122 
DISL,ioos:station:DISL:CATA:1,2013-05-02T02:00:00Z,30.3085,-88.1395,2.413,10.69,1111122 
DISL,ioos:station:DISL:CATA:1,2013-05-02T02:30:00Z,30.3085,-88.1395,2.333,11.71,1111122 
DISL,ioos:station:DISL:CATA:1,2013-05-02T03:00:00Z,30.3085,-88.1395,2.555,11.54,1111122 
DISL,ioos:station:DISL:CATA:1,2013-05-02T03:30:00Z,30.3085,-88.1395,2.523,11.72,1111122 
DISL,ioos:station:DISL:CATA:1,2013-05-02T04:00:00Z,30.3085,-88.1395,2.428,11.37,1111122 
DISL,ioos:station:DISL:CATA:1,2013-05-02T04:30:00Z,30.3085,-88.1395,2.201,12.46,1111122 
DISL,ioos:station:DISL:CATA:1,2013-05-02T05:00:00Z,30.3085,-88.1395,2.231,13.28,1111122 
DISL,ioos:station:DISL:CATA:1,2013-05-02T05:30:00Z,30.3085,-88.1395,2.225,12.23,1111122 
DISL,ioos:station:DISL:CATA:1,2013-05-02T06:00:00Z,30.3085,-88.1395,2.212,12.5,1111122 
DISL,ioos:station:DISL:CATA:1,2013-05-02T06:30:00Z,30.3085,-88.1395,2.201,10.9,1111122 
DISL,ioos:station:DISL:CATA:1,2013-05-02T07:00:00Z,30.3085,-88.1395,2.237,13.3,1111122 
DISL,ioos:station:DISL:CATA:1,2013-05-02T07:30:00Z,30.3085,-88.1395,2.328,14.26,1111122 
DISL,ioos:station:DISL:CATA:1,2013-05-02T08:00:00Z,30.3085,-88.1395,2.355,16.05,1111122 
DISL,ioos:station:DISL:CATA:1,2013-05-02T08:30:00Z,30.3085,-88.1395,2.348,16.26,1111122 
DISL,ioos:station:DISL:CATA:1,2013-05-02T09:00:00Z,30.3085,-88.1395,2.384,16.11,1111122 
DISL,ioos:station:DISL:CATA:1,2013-05-02T09:30:00Z,30.3085,-88.1395,2.376,15.77,1111122 
DISL,ioos:station:DISL:CATA:1,2013-05-02T10:00:00Z,30.3085,-88.1395,2.349,14.0,1111122 
DISL,ioos:station:DISL:CATA:1,2013-05-02T10:30:00Z,30.3085,-88.1395,2.367,12.54,1111122 
DISL,ioos:station:DISL:CATA:1,2013-05-02T11:00:00Z,30.3085,-88.1395,2.404,11.14,1111122 
DISL,ioos:station:DISL:CATA:1,2013-05-02T11:30:00Z,30.3085,-88.1395,2.37,10.62,1111122 
DISL,ioos:station:DISL:CATA:1,2013-05-02T12:00:00Z,30.3085,-88.1395,2.386,10.39,1111122 
DISL,ioos:station:DISL:CATA:1,2013-05-02T12:30:00Z,30.3085,-88.1395,2.366,10.42,1111122 
DISL,ioos:station:DISL:CATA:1,2013-05-02T13:00:00Z,30.3085,-88.1395,2.346,10.25,1111122 
DISL,ioos:station:DISL:CATA:1,2013-05-02T13:30:00Z,30.3085,-88.1395,2.329,10.12,1111122 
DISL,ioos:station:DISL:CATA:1,2013-05-02T14:00:00Z,30.3085,-88.1395,2.341,9.86,1111122 
DISL,ioos:station:DISL:CATA:1,2013-05-02T14:30:00Z,30.3085,-88.1395,2.337,9.78,1111122 
DISL,ioos:station:DISL:CATA:1,2013-05-02T15:00:00Z,30.3085,-88.1395,2.353,9.79,1111122 
DISL,ioos:station:DISL:CATA:1,2013-05-02T15:30:00Z,30.3085,-88.1395,2.381,9.56,1111122 
DISL,ioos:station:DISL:CATA:1,2013-05-02T16:00:00Z,30.3085,-88.1395,2.415,9.36,1111122 
DISL,ioos:station:DISL:CATA:1,2013-05-02T16:30:00Z,30.3085,-88.1395,2.428,9.26,1111122 
DISL,ioos:station:DISL:CATA:1,2013-05-02T17:00:00Z,30.3085,-88.1395,2.455,9.14,1111122 
DISL,ioos:station:DISL:CATA:1,2013-05-02T17:30:00Z,30.3085,-88.1395,2.477,9.0,1111122 
DISL,ioos:station:DISL:CATA:1,2013-05-02T18:00:00Z,30.3085,-88.1395,2.48,8.83,1111122 
DISL,ioos:station:DISL:CATA:1,2013-05-02T18:30:00Z,30.3085,-88.1395,2.484,8.7,1111122 
DISL,ioos:station:DISL:CATA:1,2013-05-02T19:00:00Z,30.3085,-88.1395,2.488,8.92,1111122 
DISL,ioos:station:DISL:CATA:1,2013-05-02T19:30:00Z,30.3085,-88.1395,2.505,8.95,1111122 
DISL,ioos:station:DISL:CATA:1,2013-05-02T20:00:00Z,30.3085,-88.1395,2.538,8.77,1111122 
DISL,ioos:station:DISL:CATA:1,2013-05-02T20:30:00Z,30.3085,-88.1395,2.562,8.86,1111122 
DISL,ioos:station:DISL:CATA:1,2013-05-02T21:00:00Z,30.3085,-88.1395,2.515,8.26,1111122 
DISL,ioos:station:DISL:CATA:1,2013-05-02T21:30:00Z,30.3085,-88.1395,2.498,8.13,1111122 
DISL,ioos:station:DISL:CATA:1,2013-05-02T22:00:00Z,30.3085,-88.1395,2.492,8.14,1111122 
DISL,ioos:station:DISL:CATA:1,2013-05-02T22:30:00Z,30.3085,-88.1395,2.481,8.18,1111122 
DISL,ioos:station:DISL:CATA:1,2013-05-02T23:00:00Z,30.3085,-88.1395,2.458,8.21,1111122 
DISL,ioos:station:DISL:CATA:1,2013-05-02T23:30:00Z,30.3085,-88.1395,2.436,8.21,1111122 
DISL,ioos:station:DISL:CATA:1,2013-05-03T00:00:00Z,30.3085,-88.1395,2.437,8.11,1111122 
DISL,ioos:station:DISL:CATA:1,2013-05-03T00:30:00Z,30.3085,-88.1395,2.437,8.02,1111122 
DISL,ioos:station:DISL:CATA:1,2013-05-03T01:00:00Z,30.3085,-88.1395,2.434,8.08,1111122 
DISL,ioos:station:DISL:CATA:1,2013-05-03T01:30:00Z,30.3085,-88.1395,2.43,7.99,1111122 
DISL,ioos:station:DISL:CATA:1,2013-05-03T02:00:00Z,30.3085,-88.1395,2.417,7.97,1111122 
DISL,ioos:station:DISL:CATA:1,2013-05-03T02:30:00Z,30.3085,-88.1395,2.403,7.92,1111122 
DISL,ioos:station:DISL:CATA:1,2013-05-03T03:00:00Z,30.3085,-88.1395,2.375,7.82,1111122 
DISL,ioos:station:DISL:CATA:1,2013-05-03T03:30:00Z,30.3085,-88.1395,2.343,7.91,1111122 
DISL,ioos:station:DISL:CATA:1,2013-05-03T04:00:00Z,30.3085,-88.1395,2.267,7.79,1111122 
DISL,ioos:station:DISL:CATA:1,2013-05-03T04:30:00Z,30.3085,-88.1395,2.23,7.64,1111122 
DISL,ioos:station:DISL:CATA:1,2013-05-03T05:00:00Z,30.3085,-88.1395,2.211,7.61,1111122 
DISL,ioos:station:DISL:CATA:1,2013-05-03T05:30:00Z,30.3085,-88.1395,2.206,7.61,1111122 
DISL,ioos:station:DISL:CATA:1,2013-05-03T06:00:00Z,30.3085,-88.1395,2.202,7.6,1111122 
DISL,ioos:station:DISL:CATA:1,2013-05-03T06:30:00Z,30.3085,-88.1395,2.173,7.57,1111122 
DISL,ioos:station:DISL:CATA:1,2013-05-03T07:00:00Z,30.3085,-88.1395,2.159,7.57,1111122 
DISL,ioos:station:DISL:CATA:1,2013-05-03T07:30:00Z,30.3085,-88.1395,2.164,7.52,1111122 
DISL,ioos:station:DISL:CATA:1,2013-05-03T08:00:00Z,30.3085,-88.1395,2.162,7.49,1111122 
DISL,ioos:station:DISL:CATA:1,2013-05-03T08:30:00Z,30.3085,-88.1395,2.187,7.47,1111122 
DISL,ioos:station:DISL:CATA:1,2013-05-03T09:00:00Z,30.3085,-88.1395,2.228,7.44,1111122 
DISL,ioos:station:DISL:CATA:1,2013-05-03T09:30:00Z,30.3085,-88.1395,2.262,7.43,1111122 
DISL,ioos:station:DISL:CATA:1,2013-05-03T10:00:00Z,30.3085,-88.1395,2.276,7.46,1111122 
DISL,ioos:station:DISL:CATA:1,2013-05-03T10:30:00Z,30.3085,-88.1395,2.282,7.49,1111122 
DISL,ioos:station:DISL:CATA:1,2013-05-03T11:00:00Z,30.3085,-88.1395,2.287,7.53,1111122 
DISL,ioos:station:DISL:CATA:1,2013-05-03T11:30:00Z,30.3085,-88.1395,2.314,7.55,1111122 
DISL,ioos:station:DISL:CATA:1,2013-05-03T12:00:00Z,30.3085,-88.1395,2.338,7.57,1111122 
DISL,ioos:station:DISL:CATA:1,2013-05-03T12:30:00Z,30.3085,-88.1395,2.366,7.6,1111122 
DISL,ioos:station:DISL:CATA:1,2013-05-03T13:00:00Z,30.3085,-88.1395,2.386,7.62,1111122 
DISL,ioos:station:DISL:CATA:1,2013-05-03T13:30:00Z,30.3085,-88.1395,2.41,7.64,1111122 
DISL,ioos:station:DISL:CATA:1,2013-05-03T14:00:00Z,30.3085,-88.1395,2.416,7.65,1111122 
DISL,ioos:station:DISL:CATA:1,2013-05-03T14:30:00Z,30.3085,-88.1395,2.436,7.65,1111122 
DISL,ioos:station:DISL:CATA:1,2013-05-03T15:00:00Z,30.3085,-88.1395,2.449,7.65,1111122 
DISL,ioos:station:DISL:CATA:1,2013-05-03T15:30:00Z,30.3085,-88.1395,2.464,7.71,1111122 
DISL,ioos:station:DISL:CATA:1,2013-05-03T16:00:00Z,30.3085,-88.1395,2.465,7.74,1111122 
DISL,ioos:station:DISL:CATA:1,2013-05-03T16:30:00Z,30.3085,-88.1395,2.466,7.76,1111122 
DISL,ioos:station:DISL:CATA:1,2013-05-03T17:00:00Z,30.3085,-88.1395,2.463,7.83,1111122 
DISL,ioos:station:DISL:CATA:1,2013-05-03T17:30:00Z,30.3085,-88.1395,2.474,7.81,1111122 
DISL,ioos:station:DISL:CATA:1,2013-05-03T18:00:00Z,30.3085,-88.1395,2.485,7.74,1111122 
DISL,ioos:station:DISL:CATA:1,2013-05-03T18:30:00Z,30.3085,-88.1395,2.487,7.74,1111122 
DISL,ioos:station:DISL:CATA:1,2013-05-03T19:00:00Z,30.3085,-88.1395,2.484,7.67,1111122 
DISL,ioos:station:DISL:CATA:1,2013-05-03T19:30:00Z,30.3085,-88.1395,2.488,7.5,1111122 
DISL,ioos:station:DISL:CATA:1,2013-05-03T20:00:00Z,30.3085,-88.1395,2.495,7.51,1111122 
DISL,ioos:station:DISL:CATA:1,2013-05-03T20:30:00Z,30.3085,-88.1395,2.499,7.44,1111122 
DISL,ioos:station:DISL:CATA:1,2013-05-03T21:00:00Z,30.3085,-88.1395,2.497,7.34,1111122 
DISL,ioos:station:DISL:CATA:1,2013-05-03T21:30:00Z,30.3085,-88.1395,2.491,7.25,1111122 
DISL,ioos:station:DISL:CATA:1,2013-05-03T22:00:00Z,30.3085,-88.1395,2.482,7.16,1111122 
DISL,ioos:station:DISL:CATA:1,2013-05-03T22:30:00Z,30.3085,-88.1395,2.474,7.13,1111122 
DISL,ioos:station:DISL:CATA:1,2013-05-03T23:00:00Z,30.3085,-88.1395,2.47,7.09,1111122 
DISL,ioos:station:DISL:CATA:1,2013-05-03T23:30:00Z,30.3085,-88.1395,2.49,7.08,1111122 
DISL,ioos:station:DISL:CATA:1,2013-05-04T00:00:00Z,30.3085,-88.1395,2.506,7.09,1111122 
DISL,ioos:station:DISL:CATA:1,2013-05-04T00:30:00Z,30.3085,-88.1395,2.445,7.19,1111122 
DISL,ioos:station:DISL:CATA:1,2013-05-04T01:00:00Z,30.3085,-88.1395,2.358,7.3,1111122 
DISL,ioos:station:DISL:CATA:1,2013-05-04T01:30:00Z,30.3085,-88.1395,2.3,7.4,1111122 
DISL,ioos:station:DISL:CATA:1,2013-05-04T02:00:00Z,30.3085,-88.1395,2.24,7.35,1111122 
DISL,ioos:station:DISL:CATA:1,2013-05-04T02:30:00Z,30.3085,-88.1395,2.251,7.38,1111122 
DISL,ioos:station:DISL:CATA:1,2013-05-04T03:00:00Z,30.3085,-88.1395,2.239,6.73,1111122 
DISL,ioos:station:DISL:CATA:1,2013-05-04T03:30:00Z,30.3085,-88.1395,2.19,6.31,1111122 
DISL,ioos:station:DISL:CATA:1,2013-05-04T04:00:00Z,30.3085,-88.1395,2.177,6.42,1111122 
DISL,ioos:station:DISL:CATA:1,2013-05-04T04:30:00Z,30.3085,-88.1395,2.17,6.29,1111122 
DISL,ioos:station:DISL:CATA:1,2013-05-04T05:00:00Z,30.3085,-88.1395,2.13,6.28,1111122 
DISL,ioos:station:DISL:CATA:1,2013-05-04T05:30:00Z,30.3085,-88.1395,2.126,6.23,1111122 
DISL,ioos:station:DISL:CATA:1,2013-05-04T06:00:00Z,30.3085,-88.1395,2.103,6.2,1111122 
DISL,ioos:station:DISL:CATA:1,2013-05-04T06:30:00Z,30.3085,-88.1395,2.049,6.29,1111122 
DISL,ioos:station:DISL:CATA:1,2013-05-04T07:00:00Z,30.3085,-88.1395,2.027,6.05,1111122 
DISL,ioos:station:DISL:CATA:1,2013-05-04T07:30:00Z,30.3085,-88.1395,1.995,6.09,1111122 
DISL,ioos:station:DISL:CATA:1,2013-05-04T08:00:00Z,30.3085,-88.1395,1.957,6.22,1111122 
DISL,ioos:station:DISL:CATA:1,2013-05-04T08:30:00Z,30.3085,-88.1395,1.918,6.57,1111122 
DISL,ioos:station:DISL:CATA:1,2013-05-04T09:00:00Z,30.3085,-88.1395,1.906,6.77,1111122 
DISL,ioos:station:DISL:CATA:1,2013-05-04T09:30:00Z,30.3085,-88.1395,1.922,6.92,1111122 
DISL,ioos:station:DISL:CATA:1,2013-05-04T10:00:00Z,30.3085,-88.1395,1.967,7.07,1111122 
DISL,ioos:station:DISL:CATA:1,2013-05-04T10:30:00Z,30.3085,-88.1395,1.997,7.18,1111122 
DISL,ioos:station:DISL:CATA:1,2013-05-04T11:00:00Z,30.3085,-88.1395,2.018,6.86,1111122 
DISL,ioos:station:DISL:CATA:1,2013-05-04T11:30:00Z,30.3085,-88.1395,2.016,5.87,1111122 
DISL,ioos:station:DISL:CATA:1,2013-05-04T12:00:00Z,30.3085,-88.1395,2.033,5.74,1111122 
DISL,ioos:station:DISL:CATA:1,2013-05-04T12:30:00Z,30.3085,-88.1395,2.062,5.89,1111122 
DISL,ioos:station:DISL:CATA:1,2013-05-04T13:00:00Z,30.3085,-88.1395,2.069,6.2,1111122 
DISL,ioos:station:DISL:CATA:1,2013-05-04T13:30:00Z,30.3085,-88.1395,2.086,5.73,1111122 
DISL,ioos:station:DISL:CATA:1,2013-05-04T14:00:00Z,30.3085,-88.1395,2.098,5.48,1111122 
DISL,ioos:station:DISL:CATA:1,2013-05-04T14:30:00Z,30.3085,-88.1395,2.114,5.54,1111122 
DISL,ioos:station:DISL:CATA:1,2013-05-04T15:00:00Z,30.3085,-88.1395,2.134,5.79,1111122 
DISL,ioos:station:DISL:CATA:1,2013-05-04T15:30:00Z,30.3085,-88.1395,2.151,6.22,1111122 
DISL,ioos:station:DISL:CATA:1,2013-05-04T16:00:00Z,30.3085,-88.1395,2.184,6.84,1111122 
DISL,ioos:station:DISL:CATA:1,2013-05-04T16:30:00Z,30.3085,-88.1395,2.191,7.21,1111122 
DISL,ioos:station:DISL:CATA:1,2013-05-04T17:00:00Z,30.3085,-88.1395,2.206,7.34,1111122 
DISL,ioos:station:DISL:CATA:1,2013-05-04T17:30:00Z,30.3085,-88.1395,2.188,7.31,1111122 
DISL,ioos:station:DISL:CATA:1,2013-05-04T18:00:00Z,30.3085,-88.1395,2.176,7.23,1111122 
DISL,ioos:station:DISL:CATA:1,2013-05-04T18:30:00Z,30.3085,-88.1395,2.18,7.12,1111122 
DISL,ioos:station:DISL:CATA:1,2013-05-04T19:00:00Z,30.3085,-88.1395,2.201,7.01,1111122 
DISL,ioos:station:DISL:CATA:1,2013-05-04T19:30:00Z,30.3085,-88.1395,2.191,6.89,1111122 
DISL,ioos:station:DISL:CATA:1,2013-05-04T20:00:00Z,30.3085,-88.1395,2.222,6.78,1111122 
DISL,ioos:station:DISL:CATA:1,2013-05-04T20:30:00Z,30.3085,-88.1395,2.221,6.59,1111122 
DISL,ioos:station:DISL:CATA:1,2013-05-04T21:00:00Z,30.3085,-88.1395,2.224,6.37,1111122 
DISL,ioos:station:DISL:CATA:1,2013-05-04T21:30:00Z,30.3085,-88.1395,2.228,6.21,1111122 
DISL,ioos:station:DISL:CATA:1,2013-05-04T22:00:00Z,30.3085,-88.1395,2.225,6.16,1111122 
DISL,ioos:station:DISL:CATA:1,2013-05-04T22:30:00Z,30.3085,-88.1395,2.24,6.1,1111122 
DISL,ioos:station:DISL:CATA:1,2013-05-04T23:00:00Z,30.3085,-88.1395,2.241,5.88,1111122 
DISL,ioos:station:DISL:CATA:1,2013-05-04T23:30:00Z,30.3085,-88.1395,2.244,5.68,1111122 
DISL,ioos:station:DISL:CATA:1,2013-05-05T00:00:00Z,30.3085,-88.1395,2.248,5.61,1111122 
DISL,ioos:station:DISL:CATA:1,2013-05-05T00:30:00Z,30.3085,-88.1395,2.258,5.72,1111122 
DISL,ioos:station:DISL:CATA:1,2013-05-05T01:00:00Z,30.3085,-88.1395,2.257,5.97,1111122 
DISL,ioos:station:DISL:CATA:1,2013-05-05T01:30:00Z,30.3085,-88.1395,2.256,6.33,1111122 
DISL,ioos:station:DISL:CATA:1,2013-05-05T02:00:00Z,30.3085,-88.1395,2.273,6.6,1111122 
DISL,ioos:station:DISL:CATA:1,2013-05-05T02:30:00Z,30.3085,-88.1395,2.279,6.76,1111122 
DISL,ioos:station:DISL:CATA:1,2013-05-05T03:00:00Z,30.3085,-88.1395,2.275,6.64,1111122 
DISL,ioos:station:DISL:CATA:1,2013-05-05T03:30:00Z,30.3085,-88.1395,2.28,6.53,1111122 
DISL,ioos:station:DISL:CATA:1,2013-05-05T04:00:00Z,30.3085,-88.1395,2.276,6.44,1111122 
DISL,ioos:station:DISL:CATA:1,2013-05-05T04:30:00Z,30.3085,-88.1395,2.245,6.31,1111122 
DISL,ioos:station:DISL:CATA:1,2013-05-05T05:00:00Z,30.3085,-88.1395,2.237,6.83,1111122 
DISL,ioos:station:DISL:CATA:1,2013-05-05T05:30:00Z,30.3085,-88.1395,2.246,7.6,1111122 
DISL,ioos:station:DISL:CATA:1,2013-05-05T06:00:00Z,30.3085,-88.1395,2.269,8.25,1111122 
DISL,ioos:station:DISL:CATA:1,2013-05-05T06:30:00Z,30.3085,-88.1395,2.272,8.62,1111122 
DISL,ioos:station:DISL:CATA:1,2013-05-05T07:00:00Z,30.3085,-88.1395,2.26,8.42,1111122 
DISL,ioos:station:DISL:CATA:1,2013-05-05T07:30:00Z,30.3085,-88.1395,2.253,8.18,1111122 
DISL,ioos:station:DISL:CATA:1,2013-05-05T08:00:00Z,30.3085,-88.1395,2.245,8.63,1111122 
DISL,ioos:station:DISL:CATA:1,2013-05-05T08:30:00Z,30.3085,-88.1395,2.225,9.07,1111122 
DISL,ioos:station:DISL:CATA:1,2013-05-05T09:00:00Z,30.3085,-88.1395,2.231,9.35,1111122 
DISL,ioos:station:DISL:CATA:1,2013-05-05T09:30:00Z,30.3085,-88.1395,2.232,9.93,1111122 
DISL,ioos:station:DISL:CATA:1,2013-05-05T10:00:00Z,30.3085,-88.1395,2.244,10.55,1111122 
DISL,ioos:station:DISL:CATA:1,2013-05-05T10:30:00Z,30.3085,-88.1395,2.238,11.06,1111122 
DISL,ioos:station:DISL:CATA:1,2013-05-05T11:00:00Z,30.3085,-88.1395,2.222,11.37,1111122 
DISL,ioos:station:DISL:CATA:1,2013-05-05T11:30:00Z,30.3085,-88.1395,2.234,11.35,1111122 
DISL,ioos:station:DISL:CATA:1,2013-05-05T12:00:00Z,30.3085,-88.1395,2.212,11.05,1111122 
DISL,ioos:station:DISL:CATA:1,2013-05-05T12:30:00Z,30.3085,-88.1395,2.271,10.78,1111122 
DISL,ioos:station:DISL:CATA:1,2013-05-05T13:00:00Z,30.3085,-88.1395,2.279,10.54,1111122 
DISL,ioos:station:DISL:CATA:1,2013-05-05T13:30:00Z,30.3085,-88.1395,2.314,10.12,1111122 
DISL,ioos:station:DISL:CATA:1,2013-05-05T14:00:00Z,30.3085,-88.1395,2.296,9.92,1111122 
DISL,ioos:station:DISL:CATA:1,2013-05-05T14:30:00Z,30.3085,-88.1395,2.271,9.84,1111122 
DISL,ioos:station:DISL:CATA:1,2013-05-05T15:00:00Z,30.3085,-88.1395,2.251,9.74,1111122 
DISL,ioos:station:DISL:CATA:1,2013-05-05T15:30:00Z,30.3085,-88.1395,2.23,9.52,1111122 
DISL,ioos:station:DISL:CATA:1,2013-05-05T16:00:00Z,30.3085,-88.1395,2.19,9.75,1111122 
DISL,ioos:station:DISL:CATA:1,2013-05-05T16:30:00Z,30.3085,-88.1395,2.172,9.7,1111122 
DISL,ioos:station:DISL:CATA:1,2013-05-05T17:00:00Z,30.3085,-88.1395,2.161,9.31,1111122 
DISL,ioos:station:DISL:CATA:1,2013-05-05T17:30:00Z,30.3085,-88.1395,2.16,9.2,1111122 
DISL,ioos:station:DISL:CATA:1,2013-05-05T18:00:00Z,30.3085,-88.1395,2.135,9.27,1111122 
DISL,ioos:station:DISL:CATA:1,2013-05-05T18:30:00Z,30.3085,-88.1395,2.119,9.41,1111122 
DISL,ioos:station:DISL:CATA:1,2013-05-05T19:00:00Z,30.3085,-88.1395,2.128,9.52,1111122 
DISL,ioos:station:DISL:CATA:1,2013-05-05T19:30:00Z,30.3085,-88.1395,2.12,9.79,1111122 
DISL,ioos:station:DISL:CATA:1,2013-05-05T20:00:00Z,30.3085,-88.1395,2.086,10.13,1111122 
DISL,ioos:station:DISL:CATA:1,2013-05-05T20:30:00Z,30.3085,-88.1395,2.079,10.68,1111122 
DISL,ioos:station:DISL:CATA:1,2013-05-05T21:00:00Z,30.3085,-88.1395,2.035,10.9,1111122 
DISL,ioos:station:DISL:CATA:1,2013-05-05T21:30:00Z,30.3085,-88.1395,2.012,10.78,1111122 
DISL,ioos:station:DISL:CATA:1,2013-05-05T22:00:00Z,30.3085,-88.1395,1.982,10.29,1111122 
DISL,ioos:station:DISL:CATA:1,2013-05-05T22:30:00Z,30.3085,-88.1395,1.954,10.01,1111122 
DISL,ioos:station:DISL:CATA:1,2013-05-05T23:00:00Z,30.3085,-88.1395,1.928,10.0,1111122 
DISL,ioos:station:DISL:CATA:1,2013-05-05T23:30:00Z,30.3085,-88.1395,1.931,10.0,1111122 
DISL,ioos:station:DISL:CATA:1,2013-05-06T00:00:00Z,30.3085,-88.1395,1.925,9.97,1111122 
DISL,ioos:station:DISL:CATA:1,2013-05-06T00:30:00Z,30.3085,-88.1395,1.929,9.82,1111122 
DISL,ioos:station:DISL:CATA:1,2013-05-06T01:00:00Z,30.3085,-88.1395,1.941,9.77,1111122 
DISL,ioos:station:DISL:CATA:1,2013-05-06T01:30:00Z,30.3085,-88.1395,1.946,9.69,1111122 
DISL,ioos:station:DISL:CATA:1,2013-05-06T02:00:00Z,30.3085,-88.1395,1.943,9.5,1111122 
DISL,ioos:station:DISL:CATA:1,2013-05-06T02:30:00Z,30.3085,-88.1395,1.958,9.51,1111122 
DISL,ioos:station:DISL:CATA:1,2013-05-06T03:00:00Z,30.3085,-88.1395,1.96,9.59,1111122 
DISL,ioos:station:DISL:CATA:1,2013-05-06T03:30:00Z,30.3085,-88.1395,1.938,9.59,1111122 
DISL,ioos:station:DISL:CATA:1,2013-05-06T04:00:00Z,30.3085,-88.1395,1.959,9.17,1111122 
DISL,ioos:station:DISL:CATA:1,2013-05-06T04:30:00Z,30.3085,-88.1395,1.966,8.84,1111122 
DISL,ioos:station:DISL:CATA:1,2013-05-06T05:00:00Z,30.3085,-88.1395,1.981,8.78,1111122 
DISL,ioos:station:DISL:CATA:1,2013-05-06T05:30:00Z,30.3085,-88.1395,1.99,8.91,1111122 
DISL,ioos:station:DISL:CATA:1,2013-05-06T06:00:00Z,30.3085,-88.1395,2.006,9.02,1111122 
DISL,ioos:station:DISL:CATA:1,2013-05-06T06:30:00Z,30.3085,-88.1395,2.015,9.16,1111122 
DISL,ioos:station:DISL:CATA:1,2013-05-06T07:00:00Z,30.3085,-88.1395,2.018,9.25,1111122 
DISL,ioos:station:DISL:CATA:1,2013-05-06T07:30:00Z,30.3085,-88.1395,2.028,9.26,1111122 
DISL,ioos:station:DISL:CATA:1,2013-05-06T08:00:00Z,30.3085,-88.1395,2.048,9.33,1111122 
DISL,ioos:station:DISL:CATA:1,2013-05-06T08:30:00Z,30.3085,-88.1395,2.064,9.45,1111122 
DISL,ioos:station:DISL:CATA:1,2013-05-06T09:00:00Z,30.3085,-88.1395,2.079,9.58,1111122 
DISL,ioos:station:DISL:CATA:1,2013-05-06T09:30:00Z,30.3085,-88.1395,2.105,9.68,1111122 
DISL,ioos:station:DISL:CATA:1,2013-05-06T10:00:00Z,30.3085,-88.1395,2.138,9.89,1111122 
DISL,ioos:station:DISL:CATA:1,2013-05-06T10:30:00Z,30.3085,-88.1395,2.155,9.95,1111122 
DISL,ioos:station:DISL:CATA:1,2013-05-06T11:00:00Z,30.3085,-88.1395,2.177,9.94,1111122 
DISL,ioos:station:DISL:CATA:1,2013-05-06T11:30:00Z,30.3085,-88.1395,2.204,9.88,1111122 
DISL,ioos:station:DISL:CATA:1,2013-05-06T12:00:00Z,30.3085,-88.1395,2.214,9.83,1111122 
DISL,ioos:station:DISL:CATA:1,2013-05-06T12:30:00Z,30.3085,-88.1395,2.214,9.76,1111122 
DISL,ioos:station:DISL:CATA:1,2013-05-06T13:00:00Z,30.3085,-88.1395,2.228,9.53,1111122 
DISL,ioos:station:DISL:CATA:1,2013-05-06T13:30:00Z,30.3085,-88.1395,2.25,9.55,1111122 
DISL,ioos:station:DISL:CATA:1,2013-05-06T14:00:00Z,30.3085,-88.1395,2.257,9.67,1111122 
DISL,ioos:station:DISL:CATA:1,2013-05-06T14:30:00Z,30.3085,-88.1395,2.254,9.63,1111122 
DISL,ioos:station:DISL:CATA:1,2013-05-06T15:00:00Z,30.3085,-88.1395,2.249,9.69,1111122 